Location: Newark
(34.1765°N, 84.7452°W)
Time: 17:22:07
(UTC+00:00)

ISS - Visible Passes

Search period start: 12 December 2019 00:00
Search period end: 22 December 2019 00:00
Orbit: 411 x 421 km, 51.6° (Epoch: 13 December)

Date Brightness Start Highest point End Pass type
(mag) Time Alt. Az. Time Alt. Az. Time Alt. Az.
12 Dec -0.8 00:28:42 10° W 00:30:52 16° SW 00:33:02 10° SSW visible
12 Dec -1.7 23:39:33 10° WNW 23:42:33 30° SW 23:45:33 10° SSE visible
19 Dec -0.2 11:30:29 10° SSE 11:31:44 12° SE 11:32:58 10° ESE visible
21 Dec -2.3 11:27:57 10° SSW 11:31:03 39° SE 11:34:10 10° ENE visible
